KB9BK Weather Reports


time (UTC)temp
C
wind
direction
speed
KPH
gust
KPH
rain 1hr
cm
rain 24hr
cm
rain mn
cm
humidity
%
barometer
mb
20260503204542 17 228 11.3 22.5 0.03 0.08 0.08 52 1005.0
20260503203543 17 231 11.3 25.7 0.00 0.08 0.08 53 1005.5
20260503202542 17 225 14.5 38.6 0.00 0.08 0.08 54 1005.7
20260503201542 17 260 12.9 33.8 0.03 0.08 0.08 55 1005.8
20260503200541 17 221 14.5 33.8 0.03 0.08 0.08 53 1006.2
20260503195540 17 237 14.5 29.0 0.03 0.08 0.08 51 1006.0
20260503194541 17 236 16.1 35.4 0.03 0.05 0.05 51 1006.2
20260503193541 17 291 14.5 29.0 0.03 0.05 0.05 48 1006.4
20260503192541 17 147 14.5 32.2 0.03 0.05 0.05 50 1006.3
20260503191540 16 202 14.5 30.6 0.00 0.05 0.05 49 1006.4
20260503190541 16 237 14.5 30.6 0.00 0.05 0.05 48 1006.6
20260503190028 16 214 12.9 25.7 0.00 0.05 0.05 47 1006.5
20260503185016 16 32 12.9 27.4 0.00 0.05 0.05 51 1006.8
20260503183532 16 313 11.3 25.7 0.00 0.05 0.05 52 1006.8
20260503182546 15 185 12.9 24.1 0.00 0.05 0.05 53 1007.0
20260503181533 15 279 11.3 20.9 0.00 0.05 0.05 58 1007.3
20260503180533 15 257 9.7 20.9 0.00 0.05 0.05 58 1007.3
20260503175533 14 227 11.3 20.9 0.00 0.05 0.05 60 1007.8
20260503174533 13 229 12.9 29.0 0.00 0.05 0.05 61 1007.8
20260503173533 13 240 12.9 24.1 0.00 0.05 0.05 60 1007.9
20260503172531 13 231 12.9 29.0 0.00 0.05 0.05 61 1008.3
20260503171527 12 194 11.3 22.5 0.00 0.05 0.05 64 1008.4
20260503171013 12 197 9.7 17.7 0.00 0.05 0.05 67 1008.7
20260503150525 13 249 17.7 32.2 0.00 0.00 0.00 58 1009.9
20260503130957 10 246 9.7 22.5 0.00 0.00 0.00 60 1010.7
20260503110514 8 286 6.4 16.1 0.00 0.00 0.00 61 1010.8
20260503090500 9 231 8.0 17.7 0.00 0.00 0.00 56 1011.4
20260503081454 8 216 6.4 17.7 0.00 0.00 0.00 56 1011.8
20260503080449 8 273 6.4 12.9 0.00 0.00 0.00 58 1011.9
20260503072917 7 240 4.8 11.3 0.00 0.00 0.00 62 1012.1
20260503071444 7 216 3.2 8.0 0.00 0.00 0.00 63 1012.2
20260503070444 7 194 4.8 12.9 0.00 0.00 0.00 64 1012.2
20260503054427 5 260 1.6 6.4 0.00 0.00 0.00 72 1012.9
20260503053427 5 216 1.6 4.8 0.00 0.00 0.00 73 1012.9
20260503052426 5 289 1.6 4.8 0.00 0.00 0.00 74 1013.0
20260503051426 5 212 1.6 4.8 0.00 0.00 0.00 75 1013.0
20260503050427 5 209 1.6 8.0 0.00 0.00 0.00 76 1013.1
20260503045909 5 214 1.6 3.2 0.00 0.00 0.00 77 1013.1
20260503044424 5 207 1.6 4.8 0.00 0.00 0.00 78 1013.2
20260503043422 5 282 1.6 6.4 0.00 0.00 0.00 79 1013.2
20260503042419 5 211 1.6 4.8 0.00 0.00 0.00 77 1013.3
20260503041916 5 199 1.6 4.8 0.00 0.00 0.00 78 1013.4
20260503040417 5 260 1.6 6.4 0.00 0.00 0.00 78 1013.4
20260503035418 5 303 3.2 6.4 0.00 0.00 0.00 77 1013.5
20260503034418 5 188 3.2 8.0 0.00 0.00 0.00 78 1013.6
20260503033418 5 231 3.2 8.0 0.00 0.00 0.00 78 1013.7
20260503032419 5 191 3.2 8.0 0.00 0.00 0.00 78 1013.7
20260503031418 5 227 3.2 9.7 0.00 0.00 0.00 77 1013.8
20260503030426 6 194 4.8 11.3 0.00 0.00 0.00 77 1014.0
20260503025414 6 198 4.8 12.9 0.00 0.00 0.00 77 1014.1
20260503024413 6 240 6.4 12.9 0.00 0.00 0.00 76 1014.2
20260503023416 6 201 4.8 12.9 0.00 0.00 0.00 76 1014.2
20260503022414 6 173 4.8 12.9 0.00 0.00 0.00 75 1014.2
20260503021417 6 222 4.8 12.9 0.00 0.00 0.00 75 1014.2
20260503020414 6 186 4.8 9.7 0.00 0.00 0.00 74 1014.1
20260503015414 6 197 4.8 12.9 0.00 0.00 0.00 73 1014.0
20260503014411 6 184 6.4 14.5 0.00 0.00 0.00 72 1014.0
20260503013411 6 205 4.8 11.3 0.00 0.00 0.00 71 1014.0
20260503012412 6 184 6.4 14.5 0.00 0.00 0.00 70 1014.0
20260503011412 7 190 6.4 11.3 0.00 0.00 0.00 68 1014.0
20260503010412 7 172 4.8 11.3 0.00 0.00 0.00 67 1014.0
20260503005412 7 190 4.8 9.7 0.00 0.00 0.00 66 1014.0
20260503004855 7 224 3.2 9.7 0.00 0.00 0.00 65 1014.0
20260503003859 7 172 4.8 12.9 0.00 0.00 0.00 64 1014.1
20260503002409 8 224 4.8 14.5 0.00 0.00 0.00 62 1014.2
20260503001409 8 180 6.4 12.9 0.00 0.00 0.00 61 1014.2
20260503000410 8 248 6.4 14.5 0.00 0.00 0.00 60 1014.3
20260502235848 8 281 6.4 17.7 0.00 0.00 0.00 59 1014.3
20260502234410 9 174 8.0 16.1 0.00 0.00 0.00 57 1014.5
20260502233852 9 249 8.0 17.7 0.00 0.00 0.00 56 1014.6
20260502232410 9 220 6.4 19.3 0.00 0.00 0.00 56 1014.7
20260502231407 9 155 6.4 16.1 0.00 0.00 0.00 56 1014.7
20260502230839 9 188 6.4 16.1 0.00 0.00 0.00 55 1014.8
20260502225405 10 198 6.4 14.5 0.00 0.00 0.00 54 1014.9
20260502224405 10 166 6.4 16.1 0.00 0.00 0.00 53 1015.1
20260502224329 9 196 4.8 12.9 0.00 0.00 0.00 56 1015.1
20260502222404 9 235 6.4 14.5 0.00 0.00 0.00 56 1015.1
20260502221405 9 165 6.4 14.5 0.00 0.00 0.00 57 1015.2
20260502220405 9 103 6.4 14.5 0.00 0.00 0.00 55 1015.2
20260502215402 10 198 6.4 14.5 0.00 0.00 0.00 55 1015.3
20260502214840 10 134 4.8 12.9 0.00 0.00 0.00 55 1015.4
20260502213359 10 180 6.4 17.7 0.00 0.00 0.00 54 1015.4
20260502212359 10 94 4.8 14.5 0.00 0.00 0.00 53 1015.4
20260502211836 10 219 6.4 12.9 0.00 0.00 0.00 53 1015.5
20260502210400 10 191 4.8 14.5 0.00 0.00 0.00 55 1015.6
20260502205359 10 186 6.4 14.5 0.00 0.00 0.00 53 1015.7